Location: Sternwarte ZA, Rosenfeld-Brittheim
(48.2889°N, 8.6789°E)
Time: 20:40:22
(UTC+01:00)

ISS - Pass Details

Date: 01 March 2021
Orbit: 417 x 422 km, 51.6° (Epoch: 02 March)

Event Time Altitude Azimuth Distance (km) Brightness Sun altitude
Exits shadow 06:26:47 - 287° (WNW) 1,557 -1.5 -7.4°
Reaches altitude 10° 06:26:56 10° 288° (WNW) 1,499 -1.6 -7.4°
Maximum altitude 06:30:11 45° 3° (N) 580 -3.0 -6.8°
Drops below altitude 10° 06:33:27 10° 78° (ENE) 1,499 0.6 -6.3°
Sets 06:35:36 0° 85° (E) 2,363 2.3 -5.9°
